Year,Month,Day,Hour,Minute,Value (Times are PST for windspeed in km/hr)
2010,05,03,00,00,5.20
2010,05,03,00,01,11.00
2010,05,03,00,02,13.10
2010,05,03,00,03,8.60
2010,05,03,00,04,9.40
2010,05,03,00,05,9.70
2010,05,03,00,06,11.90
2010,05,03,00,07,14.40
2010,05,03,00,08,15.20
2010,05,03,00,09,16.50
2010,05,03,00,10,12.00
2010,05,03,00,11,14.30
2010,05,03,00,12,10.70
2010,05,03,00,13,7.80
2010,05,03,00,14,8.00
2010,05,03,00,15,9.70
2010,05,03,00,16,10.20
2010,05,03,00,17,12.40
2010,05,03,00,18,14.60
2010,05,03,00,19,10.70
2010,05,03,00,20,10.30
2010,05,03,00,21,8.50
2010,05,03,00,22,6.00
2010,05,03,00,23,9.10
2010,05,03,00,24,10.00
2010,05,03,00,25,8.90
2010,05,03,00,26,8.40
2010,05,03,00,27,6.60
2010,05,03,00,28,6.30
2010,05,03,00,29,11.50
2010,05,03,00,30,12.60
2010,05,03,00,31,14.00
2010,05,03,00,32,18.80
2010,05,03,00,33,15.70
2010,05,03,00,34,18.90
2010,05,03,00,35,13.70
2010,05,03,00,36,9.00
2010,05,03,00,37,13.40
2010,05,03,00,38,17.00
2010,05,03,00,39,8.90
2010,05,03,00,40,12.50
2010,05,03,00,41,17.50
2010,05,03,00,42,14.50
2010,05,03,00,43,11.80
2010,05,03,00,44,12.60
2010,05,03,00,45,13.20
2010,05,03,00,46,12.60
2010,05,03,00,47,12.50
2010,05,03,00,48,13.20
2010,05,03,00,49,14.10
2010,05,03,00,50,16.00
2010,05,03,00,51,11.30
2010,05,03,00,52,10.80
2010,05,03,00,53,14.50
2010,05,03,00,54,15.30
2010,05,03,00,55,20.80
2010,05,03,00,56,15.00
2010,05,03,00,57,12.40
2010,05,03,00,58,17.30
2010,05,03,00,59,19.90
2010,05,03,01,00,13.20
2010,05,03,01,01,14.30
2010,05,03,01,02,13.80
2010,05,03,01,03,17.30
2010,05,03,01,04,14.40
2010,05,03,01,05,15.30
2010,05,03,01,06,9.10
2010,05,03,01,07,12.10
2010,05,03,01,08,10.20
2010,05,03,01,09,12.60
2010,05,03,01,10,19.50
2010,05,03,01,11,14.20
2010,05,03,01,12,17.90
2010,05,03,01,13,17.40
2010,05,03,01,14,10.20
2010,05,03,01,15,15.40
2010,05,03,01,16,13.90
2010,05,03,01,17,15.80
2010,05,03,01,18,14.50
2010,05,03,01,19,12.90
2010,05,03,01,20,11.00
2010,05,03,01,21,11.70
2010,05,03,01,22,19.50
2010,05,03,01,23,18.40
2010,05,03,01,24,18.70
2010,05,03,01,25,16.10
2010,05,03,01,26,17.30
2010,05,03,01,27,9.60
2010,05,03,01,28,7.40
2010,05,03,01,29,11.20
2010,05,03,01,30,16.40
2010,05,03,01,31,12.00
2010,05,03,01,32,6.50
2010,05,03,01,33,8.30
2010,05,03,01,34,9.20
2010,05,03,01,35,11.00
2010,05,03,01,36,8.60
2010,05,03,01,37,6.90
2010,05,03,01,38,8.80
2010,05,03,01,39,9.90
2010,05,03,01,40,8.00
2010,05,03,01,41,14.60
2010,05,03,01,42,12.80
2010,05,03,01,43,17.40
2010,05,03,01,44,11.80
2010,05,03,01,45,7.70
2010,05,03,01,46,8.60
2010,05,03,01,47,8.30
2010,05,03,01,48,19.10
2010,05,03,01,49,17.40
2010,05,03,01,50,10.00
2010,05,03,01,51,18.00
2010,05,03,01,52,21.20
2010,05,03,01,53,18.50
2010,05,03,01,54,14.00
2010,05,03,01,55,23.20
2010,05,03,01,56,16.50
2010,05,03,01,57,20.20
2010,05,03,01,58,17.80
2010,05,03,01,59,21.90
2010,05,03,02,00,19.60
2010,05,03,02,01,21.50
2010,05,03,02,02,20.00
2010,05,03,02,03,14.90
2010,05,03,02,04,18.90
2010,05,03,02,05,21.90
2010,05,03,02,06,27.40
2010,05,03,02,07,23.00
2010,05,03,02,08,23.80
2010,05,03,02,09,17.90
2010,05,03,02,10,20.60
2010,05,03,02,11,12.00
2010,05,03,02,12,23.90
2010,05,03,02,13,23.00
2010,05,03,02,14,19.40
2010,05,03,02,15,24.40
2010,05,03,02,16,21.70
2010,05,03,02,17,20.70
2010,05,03,02,18,27.30
2010,05,03,02,19,24.90
2010,05,03,02,20,22.20
2010,05,03,02,21,23.70
2010,05,03,02,22,24.90
2010,05,03,02,23,21.70
2010,05,03,02,24,18.60
2010,05,03,02,25,16.00
2010,05,03,02,26,19.70
2010,05,03,02,27,17.50
2010,05,03,02,28,20.90
2010,05,03,02,29,15.00
2010,05,03,02,30,17.20
2010,05,03,02,31,16.80
2010,05,03,02,32,19.20
2010,05,03,02,33,20.60
2010,05,03,02,34,13.10
2010,05,03,02,35,14.10
2010,05,03,02,36,11.40
2010,05,03,02,37,12.70
2010,05,03,02,38,9.90
2010,05,03,02,39,14.70
2010,05,03,02,40,20.50
2010,05,03,02,41,19.20
2010,05,03,02,42,12.30
2010,05,03,02,43,22.10
2010,05,03,02,44,20.20
2010,05,03,02,45,15.90
2010,05,03,02,46,16.20
2010,05,03,02,47,16.20
2010,05,03,02,48,20.60
2010,05,03,02,49,19.70
2010,05,03,02,50,22.50
2010,05,03,02,51,19.50
2010,05,03,02,52,26.00
2010,05,03,02,53,26.20
2010,05,03,02,54,15.30
2010,05,03,02,55,27.50
2010,05,03,02,56,21.60
2010,05,03,02,57,19.00
2010,05,03,02,58,28.10
2010,05,03,02,59,19.70
2010,05,03,03,00,17.90
2010,05,03,03,01,19.30
2010,05,03,03,02,21.60
2010,05,03,03,03,25.10
2010,05,03,03,04,25.40
2010,05,03,03,05,17.90
2010,05,03,03,06,24.50
2010,05,03,03,07,22.50
2010,05,03,03,08,18.50
2010,05,03,03,09,17.10
2010,05,03,03,10,18.70
2010,05,03,03,11,16.50
2010,05,03,03,12,21.70
2010,05,03,03,13,15.70
2010,05,03,03,14,14.70
2010,05,03,03,15,12.00
2010,05,03,03,16,17.20
2010,05,03,03,17,17.40
2010,05,03,03,18,14.40
2010,05,03,03,19,12.70
2010,05,03,03,20,16.10
2010,05,03,03,21,10.50
2010,05,03,03,22,8.20
2010,05,03,03,23,14.40
2010,05,03,03,24,9.00
2010,05,03,03,25,11.30
2010,05,03,03,26,7.70
2010,05,03,03,27,10.40
2010,05,03,03,28,16.10
2010,05,03,03,29,10.00
2010,05,03,03,30,9.30
2010,05,03,03,31,12.90
2010,05,03,03,32,10.50
2010,05,03,03,33,14.60
2010,05,03,03,34,8.60
2010,05,03,03,35,11.40
2010,05,03,03,36,15.50
2010,05,03,03,37,10.70
2010,05,03,03,38,16.70
2010,05,03,03,39,20.00
2010,05,03,03,40,12.60
2010,05,03,03,41,12.20
2010,05,03,03,42,14.40
2010,05,03,03,43,10.80
2010,05,03,03,44,7.50
2010,05,03,03,45,17.80
2010,05,03,03,46,12.20
2010,05,03,03,47,13.10
2010,05,03,03,48,17.30
2010,05,03,03,49,12.00
2010,05,03,03,50,11.50
2010,05,03,03,51,12.90
2010,05,03,03,52,11.20
2010,05,03,03,53,23.10
2010,05,03,03,54,14.00
2010,05,03,03,55,13.00
2010,05,03,03,56,9.10
2010,05,03,03,57,16.80
2010,05,03,03,58,19.80
2010,05,03,03,59,16.30
2010,05,03,04,00,14.70
2010,05,03,04,01,18.70
2010,05,03,04,02,15.70
2010,05,03,04,03,12.80
2010,05,03,04,04,13.10
2010,05,03,04,05,15.50
2010,05,03,04,06,15.00
2010,05,03,04,07,15.00
2010,05,03,04,08,14.70
2010,05,03,04,09,17.00
2010,05,03,04,10,21.30
2010,05,03,04,11,16.00
2010,05,03,04,12,13.90
2010,05,03,04,13,18.00
2010,05,03,04,14,13.70
2010,05,03,04,15,17.80
2010,05,03,04,16,9.40
2010,05,03,04,17,15.10
2010,05,03,04,18,17.20
2010,05,03,04,19,13.80
2010,05,03,04,20,14.80
2010,05,03,04,21,11.70
2010,05,03,04,22,16.90
2010,05,03,04,23,17.00
2010,05,03,04,24,18.50
2010,05,03,04,25,13.10
2010,05,03,04,26,10.30
2010,05,03,04,27,17.00
2010,05,03,04,28,20.80
2010,05,03,04,29,22.30
2010,05,03,04,30,23.00
2010,05,03,04,31,23.90
2010,05,03,04,32,18.90
2010,05,03,04,33,16.80
2010,05,03,04,34,17.30
2010,05,03,04,35,22.40
2010,05,03,04,36,17.50
2010,05,03,04,37,15.20
2010,05,03,04,38,15.20
2010,05,03,04,39,21.90
2010,05,03,04,40,22.40
2010,05,03,04,41,29.60
2010,05,03,04,42,24.10
2010,05,03,04,43,26.40
2010,05,03,04,44,24.00
2010,05,03,04,45,17.30
2010,05,03,04,46,22.00
2010,05,03,04,47,30.40
2010,05,03,04,48,24.40
2010,05,03,04,49,26.70
2010,05,03,04,50,22.50
2010,05,03,04,51,23.50
2010,05,03,04,52,23.00
2010,05,03,04,53,20.00
2010,05,03,04,54,20.30
2010,05,03,04,55,28.40
2010,05,03,04,56,27.20
2010,05,03,04,57,32.30
2010,05,03,04,58,29.70
2010,05,03,04,59,26.90
2010,05,03,05,00,20.80
2010,05,03,05,01,22.30
2010,05,03,05,02,27.30
2010,05,03,05,03,26.80
2010,05,03,05,04,33.50
2010,05,03,05,05,33.60
2010,05,03,05,06,25.50
2010,05,03,05,07,26.30
2010,05,03,05,08,24.30
2010,05,03,05,09,27.40
2010,05,03,05,10,28.00
2010,05,03,05,11,29.00
2010,05,03,05,12,28.50
2010,05,03,05,13,27.00
2010,05,03,05,14,23.80
2010,05,03,05,15,29.30
2010,05,03,05,16,24.60
2010,05,03,05,17,29.80
2010,05,03,05,18,30.60
2010,05,03,05,19,29.30
2010,05,03,05,20,26.30
2010,05,03,05,21,28.50
2010,05,03,05,22,22.30
2010,05,03,05,23,28.90
2010,05,03,05,24,34.60
2010,05,03,05,25,34.40
2010,05,03,05,26,37.00
2010,05,03,05,27,26.30
2010,05,03,05,28,26.60
2010,05,03,05,29,28.90
2010,05,03,05,30,25.60
2010,05,03,05,31,30.60
2010,05,03,05,32,24.80
2010,05,03,05,33,26.90
2010,05,03,05,34,31.50
2010,05,03,05,35,18.70
2010,05,03,05,36,29.80
2010,05,03,05,37,27.70
2010,05,03,05,38,23.10
2010,05,03,05,39,20.90
2010,05,03,05,40,19.10
2010,05,03,05,41,25.50
2010,05,03,05,42,19.30
2010,05,03,05,43,13.80
2010,05,03,05,44,27.10
2010,05,03,05,45,21.60
2010,05,03,05,46,14.80
2010,05,03,05,47,17.90
2010,05,03,05,48,18.10
2010,05,03,05,49,28.20
2010,05,03,05,50,16.60
2010,05,03,05,51,19.30
2010,05,03,05,52,17.60
2010,05,03,05,53,20.30
2010,05,03,05,54,17.60
2010,05,03,05,55,25.80
2010,05,03,05,56,21.80
2010,05,03,05,57,23.10
2010,05,03,05,58,15.30
2010,05,03,05,59,14.60
2010,05,03,06,00,13.80
2010,05,03,06,01,12.60
2010,05,03,06,02,20.00
2010,05,03,06,03,9.70
2010,05,03,06,04,12.40
2010,05,03,06,05,16.10
2010,05,03,06,06,13.90
2010,05,03,06,07,7.10
2010,05,03,06,08,14.10
2010,05,03,06,09,7.00
2010,05,03,06,10,10.20
2010,05,03,06,11,16.10
2010,05,03,06,12,9.20
2010,05,03,06,13,22.60
2010,05,03,06,14,14.30
2010,05,03,06,15,14.60
2010,05,03,06,16,19.80
2010,05,03,06,17,21.10
2010,05,03,06,18,23.80
2010,05,03,06,19,14.00
2010,05,03,06,20,18.60
2010,05,03,06,21,18.40
2010,05,03,06,22,16.80
2010,05,03,06,23,19.70
2010,05,03,06,24,23.00
2010,05,03,06,25,17.90
2010,05,03,06,26,18.70
2010,05,03,06,27,23.50
2010,05,03,06,28,25.10
2010,05,03,06,29,20.00
2010,05,03,06,30,15.10
2010,05,03,06,31,20.80
2010,05,03,06,32,11.90
2010,05,03,06,33,18.40
2010,05,03,06,34,18.40
2010,05,03,06,35,23.00
2010,05,03,06,36,22.80
2010,05,03,06,37,21.10
2010,05,03,06,38,19.50
2010,05,03,06,39,21.20
2010,05,03,06,40,22.80
2010,05,03,06,41,16.50
2010,05,03,06,42,18.10
2010,05,03,06,43,18.90
2010,05,03,06,44,22.40
2010,05,03,06,45,15.00
2010,05,03,06,46,11.60
2010,05,03,06,47,21.20
2010,05,03,06,48,21.90
2010,05,03,06,49,16.90
2010,05,03,06,50,18.80
2010,05,03,06,51,15.40
2010,05,03,06,52,20.20
2010,05,03,06,53,20.60
2010,05,03,06,54,21.80
2010,05,03,06,55,20.60
2010,05,03,06,56,18.30
2010,05,03,06,57,17.30
2010,05,03,06,58,15.90
2010,05,03,06,59,20.90
2010,05,03,07,00,18.30
2010,05,03,07,01,20.40
2010,05,03,07,02,18.00
2010,05,03,07,03,19.30
2010,05,03,07,04,22.90
2010,05,03,07,05,17.30
2010,05,03,07,06,19.80
2010,05,03,07,07,14.60
2010,05,03,07,08,18.80
2010,05,03,07,09,14.30
2010,05,03,07,10,16.00
2010,05,03,07,11,23.50
2010,05,03,07,12,19.10
2010,05,03,07,13,19.30
2010,05,03,07,14,24.80
2010,05,03,07,15,24.80
2010,05,03,07,16,16.30
2010,05,03,07,17,14.90
2010,05,03,07,18,18.10
2010,05,03,07,19,18.50
2010,05,03,07,20,19.10
2010,05,03,07,21,23.40
2010,05,03,07,22,19.30
2010,05,03,07,23,22.40
2010,05,03,07,24,25.00
2010,05,03,07,25,16.20
2010,05,03,07,26,27.90
2010,05,03,07,27,21.50
2010,05,03,07,28,23.70
2010,05,03,07,29,16.20
2010,05,03,07,30,23.20
2010,05,03,07,31,17.30
2010,05,03,07,32,16.20
2010,05,03,07,33,17.60
2010,05,03,07,34,17.10
2010,05,03,07,35,21.60
2010,05,03,07,36,17.80
2010,05,03,07,37,16.60
2010,05,03,07,38,16.50
2010,05,03,07,39,11.80
2010,05,03,07,40,19.50
2010,05,03,07,41,20.70
2010,05,03,07,42,21.70
2010,05,03,07,43,21.30
2010,05,03,07,44,23.30
2010,05,03,07,45,20.60
2010,05,03,07,46,16.00
2010,05,03,07,47,20.50
2010,05,03,07,48,16.70
2010,05,03,07,49,18.20
2010,05,03,07,50,17.00
2010,05,03,07,51,17.80
2010,05,03,07,52,19.10
2010,05,03,07,53,16.90
2010,05,03,07,54,21.10
2010,05,03,07,55,17.70
2010,05,03,07,56,24.60
2010,05,03,07,57,19.80
2010,05,03,07,58,14.30
2010,05,03,07,59,26.70
2010,05,03,08,00,20.20
2010,05,03,08,01,17.80
2010,05,03,08,02,24.10
2010,05,03,08,03,19.20
2010,05,03,08,04,19.50
2010,05,03,08,05,20.80
2010,05,03,08,06,21.80
2010,05,03,08,07,18.00
2010,05,03,08,08,19.80
2010,05,03,08,09,23.00
2010,05,03,08,10,24.90
2010,05,03,08,11,22.70
2010,05,03,08,12,18.10
2010,05,03,08,13,22.40
2010,05,03,08,14,24.70
2010,05,03,08,15,24.50
2010,05,03,08,16,22.90
2010,05,03,08,17,20.90
2010,05,03,08,18,21.30
2010,05,03,08,19,24.10
2010,05,03,08,20,20.90
2010,05,03,08,21,16.70
2010,05,03,08,22,24.10
2010,05,03,08,23,23.30
2010,05,03,08,24,26.90
2010,05,03,08,25,21.30
2010,05,03,08,26,30.20
2010,05,03,08,27,22.40
2010,05,03,08,28,15.60
2010,05,03,08,29,17.30
2010,05,03,08,30,21.80
2010,05,03,08,31,16.80
2010,05,03,08,32,13.60
2010,05,03,08,33,20.00
2010,05,03,08,34,12.20
2010,05,03,08,35,19.00
2010,05,03,08,36,19.20
2010,05,03,08,37,20.30
2010,05,03,08,38,23.10
2010,05,03,08,39,21.80
2010,05,03,08,40,19.50
2010,05,03,08,41,24.30
2010,05,03,08,42,19.70
2010,05,03,08,43,19.60
2010,05,03,08,44,25.70
2010,05,03,08,45,21.10
2010,05,03,08,46,16.10
2010,05,03,08,47,9.70
2010,05,03,08,48,15.60
2010,05,03,08,49,19.60
2010,05,03,08,50,13.80
2010,05,03,08,51,23.20
2010,05,03,08,52,21.00
2010,05,03,08,53,25.30
2010,05,03,08,54,18.40
2010,05,03,08,55,15.30
2010,05,03,08,56,21.50
2010,05,03,08,57,20.60
2010,05,03,08,58,17.70
2010,05,03,08,59,16.00
2010,05,03,09,00,18.40
2010,05,03,09,01,21.80
2010,05,03,09,02,23.80
2010,05,03,09,03,30.20
2010,05,03,09,04,19.80
2010,05,03,09,05,17.90
2010,05,03,09,06,12.70
2010,05,03,09,07,15.60
2010,05,03,09,08,19.20
2010,05,03,09,09,22.10
2010,05,03,09,10,15.30
2010,05,03,09,11,12.40
2010,05,03,09,12,11.90
2010,05,03,09,13,20.20
2010,05,03,09,14,22.80
2010,05,03,09,15,15.50
2010,05,03,09,16,16.30
2010,05,03,09,17,19.20
2010,05,03,09,18,18.10
2010,05,03,09,19,23.00
2010,05,03,09,20,17.10
2010,05,03,09,21,12.50
2010,05,03,09,22,15.40
2010,05,03,09,23,18.10
2010,05,03,09,24,9.00
2010,05,03,09,25,10.80
2010,05,03,09,26,14.80
2010,05,03,09,27,8.60
2010,05,03,09,28,12.90
2010,05,03,09,29,13.20
2010,05,03,09,30,12.60
2010,05,03,09,31,14.50
2010,05,03,09,32,14.50
2010,05,03,09,33,15.10
2010,05,03,09,34,17.90
2010,05,03,09,35,12.30
2010,05,03,09,36,18.30
2010,05,03,09,37,17.80
2010,05,03,09,38,10.70
2010,05,03,09,39,14.90
2010,05,03,09,40,8.10
2010,05,03,09,41,23.80
2010,05,03,09,42,21.40
2010,05,03,09,43,13.90
2010,05,03,09,44,14.90
2010,05,03,09,45,16.10
2010,05,03,09,46,8.10
2010,05,03,09,47,10.50
2010,05,03,09,48,13.90
2010,05,03,09,49,20.90
2010,05,03,09,50,13.80
2010,05,03,09,51,14.30
2010,05,03,09,52,12.20
2010,05,03,09,53,9.30
2010,05,03,09,54,13.00
2010,05,03,09,55,11.10
2010,05,03,09,56,15.20
2010,05,03,09,57,17.70
2010,05,03,09,58,18.30
2010,05,03,09,59,21.30
2010,05,03,10,00,13.40
2010,05,03,10,01,14.30
2010,05,03,10,02,8.10
2010,05,03,10,03,23.00
2010,05,03,10,04,16.20
2010,05,03,10,05,21.60
2010,05,03,10,06,10.70
2010,05,03,10,07,12.90
2010,05,03,10,08,16.50
2010,05,03,10,09,25.90
2010,05,03,10,10,25.80
2010,05,03,10,11,24.80
2010,05,03,10,12,15.60
2010,05,03,10,13,15.70
2010,05,03,10,14,14.00
2010,05,03,10,15,22.80
2010,05,03,10,16,16.40
2010,05,03,10,17,21.50
2010,05,03,10,18,21.90
2010,05,03,10,19,11.00
2010,05,03,10,20,20.30
2010,05,03,10,21,14.60
2010,05,03,10,22,9.80
2010,05,03,10,23,5.20
2010,05,03,10,24,18.90
2010,05,03,10,25,18.30
2010,05,03,10,26,14.30
2010,05,03,10,27,14.60
2010,05,03,10,28,15.00
2010,05,03,10,29,15.40
2010,05,03,10,30,7.10
2010,05,03,10,31,17.60
2010,05,03,10,32,8.70
2010,05,03,10,33,9.10
2010,05,03,10,34,13.60
2010,05,03,10,35,16.00
2010,05,03,10,36,10.70
2010,05,03,10,37,12.50
2010,05,03,10,38,12.70
2010,05,03,10,39,5.30
2010,05,03,10,40,10.90
2010,05,03,10,41,15.00
2010,05,03,10,42,5.40
2010,05,03,10,43,4.80
2010,05,03,10,44,5.50
2010,05,03,10,45,7.20
2010,05,03,10,46,8.10
2010,05,03,10,47,16.00
2010,05,03,10,48,9.50
2010,05,03,10,49,12.20
2010,05,03,10,50,14.80
2010,05,03,10,51,7.70
2010,05,03,10,52,7.40
2010,05,03,10,53,15.50
2010,05,03,10,54,15.70
2010,05,03,10,55,9.40
2010,05,03,10,56,9.90
2010,05,03,10,57,8.70
2010,05,03,10,58,16.10
2010,05,03,10,59,7.30
2010,05,03,11,00,12.50
2010,05,03,11,01,11.70
2010,05,03,11,02,8.40
2010,05,03,11,03,11.30
2010,05,03,11,04,9.80
2010,05,03,11,05,7.70
2010,05,03,11,06,14.70
2010,05,03,11,07,10.90
2010,05,03,11,08,9.00
2010,05,03,11,09,16.50
2010,05,03,11,10,20.30
2010,05,03,11,11,13.00
2010,05,03,11,12,11.50
2010,05,03,11,13,15.80
2010,05,03,11,14,18.40
2010,05,03,11,15,18.40
2010,05,03,11,16,13.50
2010,05,03,11,17,15.00
2010,05,03,11,18,13.90
2010,05,03,11,19,16.50
2010,05,03,11,20,14.60
2010,05,03,11,21,19.30
2010,05,03,11,22,9.40
2010,05,03,11,23,6.00
2010,05,03,11,24,12.90
2010,05,03,11,25,13.60
2010,05,03,11,26,8.80
2010,05,03,11,27,13.00
2010,05,03,11,28,13.10
2010,05,03,11,29,18.90
2010,05,03,11,30,14.40
2010,05,03,11,31,15.50
2010,05,03,11,32,17.80
2010,05,03,11,33,21.50
2010,05,03,11,34,14.80
2010,05,03,11,35,11.00
2010,05,03,11,36,13.80
2010,05,03,11,37,16.80
2010,05,03,11,38,15.30
2010,05,03,11,39,18.50
2010,05,03,11,40,10.80
2010,05,03,11,41,10.50
2010,05,03,11,42,15.20
2010,05,03,11,43,12.10
2010,05,03,11,44,17.90
2010,05,03,11,45,17.10
2010,05,03,11,46,17.30
2010,05,03,11,47,22.90
2010,05,03,11,48,18.50
2010,05,03,11,49,15.70
2010,05,03,11,50,15.50
2010,05,03,11,51,9.50
2010,05,03,11,52,9.70
2010,05,03,11,53,19.70
2010,05,03,11,54,18.40
2010,05,03,11,55,23.10
2010,05,03,11,56,19.80
2010,05,03,11,57,23.00
2010,05,03,11,58,17.10
2010,05,03,11,59,16.10
2010,05,03,12,00,9.40
2010,05,03,12,01,14.20
2010,05,03,12,02,11.60
2010,05,03,12,03,21.80
2010,05,03,12,04,18.50
2010,05,03,12,05,15.70
2010,05,03,12,06,17.60
2010,05,03,12,07,12.90
2010,05,03,12,08,17.40
2010,05,03,12,09,19.60
2010,05,03,12,10,19.80
2010,05,03,12,11,21.00
2010,05,03,12,12,19.20
2010,05,03,12,13,19.00
2010,05,03,12,14,14.70
2010,05,03,12,15,20.60
2010,05,03,12,16,16.50
2010,05,03,12,17,21.50
2010,05,03,12,18,17.10
2010,05,03,12,19,17.00
2010,05,03,12,20,24.00
2010,05,03,12,21,18.50
2010,05,03,12,22,16.70
2010,05,03,12,23,13.20
2010,05,03,12,24,12.70
2010,05,03,12,25,18.50
2010,05,03,12,26,14.10
2010,05,03,12,27,21.50
2010,05,03,12,28,8.90
2010,05,03,12,29,11.10
2010,05,03,12,30,15.90
2010,05,03,12,31,16.10
2010,05,03,12,32,16.60
2010,05,03,12,33,15.30
2010,05,03,12,34,23.60
2010,05,03,12,35,26.50
2010,05,03,12,36,21.60
2010,05,03,12,37,17.50
2010,05,03,12,38,15.70
2010,05,03,12,39,16.90
2010,05,03,12,40,11.10
2010,05,03,12,41,25.20
2010,05,03,12,42,14.50
2010,05,03,12,43,18.30
2010,05,03,12,44,13.60
2010,05,03,12,45,19.20
2010,05,03,12,46,20.90
2010,05,03,12,47,17.60
2010,05,03,12,48,22.40
2010,05,03,12,49,21.90
2010,05,03,12,50,20.60
2010,05,03,12,51,14.60
2010,05,03,12,52,14.00
2010,05,03,12,53,21.10
2010,05,03,12,54,16.50
2010,05,03,12,55,12.30
2010,05,03,12,56,16.20
2010,05,03,12,57,12.70
2010,05,03,12,58,23.30
2010,05,03,12,59,21.30
2010,05,03,13,00,19.80
2010,05,03,13,01,19.70
2010,05,03,13,02,16.50
2010,05,03,13,03,23.90
2010,05,03,13,04,18.60
2010,05,03,13,05,21.50
2010,05,03,13,06,19.20
2010,05,03,13,07,16.90
2010,05,03,13,08,17.80
2010,05,03,13,09,15.70
2010,05,03,13,10,22.30
2010,05,03,13,11,21.80
2010,05,03,13,12,22.00
2010,05,03,13,13,18.90
2010,05,03,13,14,25.00
2010,05,03,13,15,24.80
2010,05,03,13,16,25.00
2010,05,03,13,17,23.00
2010,05,03,13,18,20.00
2010,05,03,13,19,24.10
2010,05,03,13,20,21.90
2010,05,03,13,21,23.90
2010,05,03,13,22,24.60
2010,05,03,13,23,19.80
2010,05,03,13,24,16.20
2010,05,03,13,25,22.10
2010,05,03,13,26,22.60
2010,05,03,13,27,19.90
2010,05,03,13,28,16.80
2010,05,03,13,29,18.80
2010,05,03,13,30,15.90
2010,05,03,13,31,21.20
2010,05,03,13,32,14.00
2010,05,03,13,33,23.80
2010,05,03,13,34,22.50
2010,05,03,13,35,19.10
2010,05,03,13,36,19.80
2010,05,03,13,37,18.10
2010,05,03,13,38,13.70
2010,05,03,13,39,18.30
2010,05,03,13,40,18.70
2010,05,03,13,41,15.50
2010,05,03,13,42,21.80
2010,05,03,13,43,16.30
2010,05,03,13,44,20.80
2010,05,03,13,45,22.20
2010,05,03,13,46,18.60
2010,05,03,13,47,22.20
2010,05,03,13,48,21.00
2010,05,03,13,49,21.20
2010,05,03,13,50,14.40
2010,05,03,13,51,18.90
2010,05,03,13,52,18.50
2010,05,03,13,53,13.00
2010,05,03,13,54,18.30
2010,05,03,13,55,20.30
2010,05,03,13,56,19.00
2010,05,03,13,57,17.80
2010,05,03,13,58,32.00
2010,05,03,13,59,21.80
2010,05,03,14,00,17.60
2010,05,03,14,01,24.60
2010,05,03,14,02,19.90
2010,05,03,14,03,15.90
2010,05,03,14,04,17.60
2010,05,03,14,05,18.90
2010,05,03,14,06,23.80
2010,05,03,14,07,23.60
2010,05,03,14,08,13.40
2010,05,03,14,09,16.20
2010,05,03,14,10,19.80
2010,05,03,14,11,14.90
2010,05,03,14,12,20.20
2010,05,03,14,13,21.10
2010,05,03,14,14,16.60
2010,05,03,14,15,21.10
2010,05,03,14,16,20.60
2010,05,03,14,17,24.90
2010,05,03,14,18,22.80
2010,05,03,14,19,19.20
2010,05,03,14,20,18.40
2010,05,03,14,21,19.10
2010,05,03,14,22,23.00
2010,05,03,14,23,15.10
2010,05,03,14,24,22.40
2010,05,03,14,25,17.00
2010,05,03,14,26,20.20
2010,05,03,14,27,22.30
2010,05,03,14,28,18.90
2010,05,03,14,29,24.30
2010,05,03,14,30,18.00
2010,05,03,14,31,16.50
2010,05,03,14,32,14.30
2010,05,03,14,33,18.80
2010,05,03,14,34,20.20
2010,05,03,14,35,15.40
2010,05,03,14,36,23.30
2010,05,03,14,37,18.80
2010,05,03,14,38,21.70
2010,05,03,14,39,22.40
2010,05,03,14,40,18.00
2010,05,03,14,41,20.30
2010,05,03,14,42,25.90
2010,05,03,14,43,21.90
2010,05,03,14,44,28.40
2010,05,03,14,45,17.00
2010,05,03,14,46,17.90
2010,05,03,14,47,20.70
2010,05,03,14,48,17.60
2010,05,03,14,49,23.30
2010,05,03,14,50,16.60
2010,05,03,14,51,17.50
2010,05,03,14,52,17.80
2010,05,03,14,53,14.90
2010,05,03,14,54,13.50
2010,05,03,14,55,26.00
2010,05,03,14,56,19.50
2010,05,03,14,57,23.80
2010,05,03,14,58,22.20
2010,05,03,14,59,23.70
2010,05,03,15,00,21.20
2010,05,03,15,01,21.60
2010,05,03,15,02,25.30
2010,05,03,15,03,13.10
2010,05,03,15,04,16.20
2010,05,03,15,05,18.10
2010,05,03,15,06,23.10
2010,05,03,15,07,15.40
2010,05,03,15,08,23.50
2010,05,03,15,09,24.60
2010,05,03,15,10,21.60
2010,05,03,15,11,21.10
2010,05,03,15,12,24.40
2010,05,03,15,13,28.70
2010,05,03,15,14,16.10
2010,05,03,15,15,17.80
2010,05,03,15,16,20.20
2010,05,03,15,17,20.70
2010,05,03,15,18,18.70
2010,05,03,15,19,20.60
2010,05,03,15,20,19.00
2010,05,03,15,21,24.80
2010,05,03,15,22,21.80
2010,05,03,15,23,23.20
2010,05,03,15,24,16.40
2010,05,03,15,25,19.00
2010,05,03,15,26,20.90
2010,05,03,15,27,20.70
2010,05,03,15,28,23.30
2010,05,03,15,29,27.60
2010,05,03,15,30,26.40
2010,05,03,15,31,21.00
2010,05,03,15,32,15.80
2010,05,03,15,33,19.50
2010,05,03,15,34,14.20
2010,05,03,15,35,19.40
2010,05,03,15,36,25.60
2010,05,03,15,37,18.80
2010,05,03,15,38,18.80
2010,05,03,15,39,21.00
2010,05,03,15,40,17.20
2010,05,03,15,41,23.00
2010,05,03,15,42,13.00
2010,05,03,15,43,22.90
2010,05,03,15,44,21.30
2010,05,03,15,45,17.00
2010,05,03,15,46,19.80
2010,05,03,15,47,22.00
2010,05,03,15,48,22.00
2010,05,03,15,49,18.90
2010,05,03,15,50,21.10
2010,05,03,15,51,23.40
2010,05,03,15,52,18.20
2010,05,03,15,53,22.40
2010,05,03,15,54,21.10
2010,05,03,15,55,23.60
2010,05,03,15,56,23.40
2010,05,03,15,57,25.20
2010,05,03,15,58,20.50
2010,05,03,15,59,26.90
2010,05,03,16,00,28.20
2010,05,03,16,01,27.00
2010,05,03,16,02,25.10
2010,05,03,16,03,16.50
2010,05,03,16,04,14.80
2010,05,03,16,05,21.10
2010,05,03,16,06,20.60
2010,05,03,16,07,16.00
2010,05,03,16,08,23.50
2010,05,03,16,09,25.60
2010,05,03,16,10,26.50
2010,05,03,16,11,26.40
2010,05,03,16,12,19.70
2010,05,03,16,13,23.90
2010,05,03,16,14,22.60
2010,05,03,16,15,20.30
2010,05,03,16,16,12.70
2010,05,03,16,17,20.10
2010,05,03,16,18,15.90
2010,05,03,16,19,26.60
2010,05,03,16,20,21.60
2010,05,03,16,21,21.90
2010,05,03,16,22,16.40
2010,05,03,16,23,15.20
2010,05,03,16,24,20.00
2010,05,03,16,25,26.00
2010,05,03,16,26,27.90
2010,05,03,16,27,20.80
2010,05,03,16,28,11.10
2010,05,03,16,29,18.80
2010,05,03,16,30,17.60
2010,05,03,16,31,21.50
2010,05,03,16,32,16.70
2010,05,03,16,33,12.70
2010,05,03,16,34,18.90
2010,05,03,16,35,16.80
2010,05,03,16,36,23.40
2010,05,03,16,37,14.30
2010,05,03,16,38,12.00
2010,05,03,16,39,11.30
2010,05,03,16,40,22.40
2010,05,03,16,41,21.90
2010,05,03,16,42,11.20
2010,05,03,16,43,14.30
2010,05,03,16,44,8.80
2010,05,03,16,45,12.00
2010,05,03,16,46,16.10
2010,05,03,16,47,15.30
2010,05,03,16,48,10.90
2010,05,03,16,49,14.00
2010,05,03,16,50,9.90
2010,05,03,16,51,8.80
2010,05,03,16,52,5.70
2010,05,03,16,53,6.20
2010,05,03,16,54,13.30
2010,05,03,16,55,14.90
2010,05,03,16,56,9.70
2010,05,03,16,57,10.80
2010,05,03,16,58,19.80
2010,05,03,16,59,16.00
2010,05,03,17,00,23.60
2010,05,03,17,01,22.80
2010,05,03,17,02,21.90
2010,05,03,17,03,21.90
2010,05,03,17,04,16.20
2010,05,03,17,05,19.80
2010,05,03,17,06,14.30
2010,05,03,17,07,15.60
2010,05,03,17,08,19.50
2010,05,03,17,09,11.80
2010,05,03,17,10,12.00
2010,05,03,17,11,14.30
2010,05,03,17,12,22.60
2010,05,03,17,13,12.60
2010,05,03,17,14,13.80
2010,05,03,17,15,18.30
2010,05,03,17,16,17.50
2010,05,03,17,17,19.50
2010,05,03,17,18,20.10
2010,05,03,17,19,12.80
2010,05,03,17,20,16.70
2010,05,03,17,21,17.20
2010,05,03,17,22,12.70
2010,05,03,17,23,12.10